QPF
0.00 0.00 0.00 0.00 0.00 0.00 0.00 0.00 0.00 0.00 0.00 0.00 0.00 0.00 0.01 0.01 0.00 0.00 0.00 0.00 0.00 0.08 0.08 0.05 0.03 0.02 0.01 0.00 0.00 0.00 0.00 0.00 0.00 0.00 0.00 0.00 0.00 0.00 0.00 0.00 0.00 0.00 0.00
0.00 0.00 0.00 0.00 0.00 0.00 0.00 0.00 0.00 0.00 0.00 0.00 0.00 0.00 0.01 0.01 0.01 0.00 0.01 0.02 0.02 0.14 0.14 0.04 0.00 0.00 0.00 0.00 0.00 0.00 0.00 0.00 0.00 0.00 0.00 0.00 0.00 0.00 0.00 0.00 0.00 0.00 0.00
0.00 0.00 0.00 0.00 0.00 0.00 0.00 0.00 0.00 0.00 0.00 0.00 0.00 0.00 0.01 0.01 0.01 0.01 0.00 0.01 0.01 0.08 0.11 0.00 0.00 0.00 0.00 0.00 0.00 0.00 0.00 0.00 0.00 0.00 0.00 0.00 0.00 0.00 0.00 0.00 0.00 0.00 0.00
0.00 0.00 0.00 0.00 0.00 0.00 0.00 0.00 0.00 0.00 0.00 0.00 0.00 0.00 0.01 0.01 0.00 0.01 0.00 0.00 0.01 0.06 0.13 0.02 0.00 0.00 0.00 0.00 0.00 0.00 0.00 0.00 0.00 0.00 0.00 0.00 0.00 0.00 0.00 0.00 0.00 0.00 0.00
0.00 0.00 0.00 0.00 0.00 0.00 0.00 0.00 0.00 0.00 0.00 0.00 0.00 0.00 0.00 0.01 0.01 0.01 0.00 0.00 0.00 0.02 0.09 0.11 0.00 0.00 0.00 0.00 0.00 0.00 0.00 0.00 0.00 0.00 0.00 0.00 0.00 0.00 0.00 0.00 0.00 0.00 0.00
0.00 0.00 0.00 0.00 0.00 0.00 0.00 0.00 0.00 0.00 0.00 0.00 0.00 0.00 0.00 0.00 0.01 0.00 0.00 0.00 0.00 0.00 0.03 0.08 0.01 0.00 0.00 0.00 0.00 0.00 0.00 0.00 0.00 0.00 0.00 0.00 0.00 0.00 0.00 0.00 0.00 0.00 0.00
0.00 0.00 0.00 0.00 0.00 0.00 0.00 0.00 0.00 0.00 0.00 0.00 0.00 0.00 0.00 0.00 0.01 0.00 0.00 0.00 0.00 0.00 0.01 0.03 0.03 0.00 0.00 0.00 0.00 0.00 0.00 0.00 0.00 0.00 0.00 0.00 0.00 0.00 0.00 0.00 0.00 0.00 0.00
0.00 0.00 0.00 0.00 0.00 0.00 0.00 0.00 0.00 0.00 0.00 0.00 0.00 0.00 0.00 0.00 0.00 0.00 0.00 0.01 0.00 0.00 0.00 0.00 0.05 0.00 0.00 0.00 0.00 0.00 0.00 0.00 0.00 0.00 0.00 0.00 0.00 0.00 0.00 0.00 0.00 0.00 0.00
0.00 0.00 0.00 0.00 0.00 0.00 0.00 0.00 0.00 0.00 0.00 0.00 0.00 0.00 0.00 0.00 0.00 0.00 0.00 0.00 0.00 0.00 0.00 0.00 0.02 0.02 0.00 0.00 0.00 0.00 0.00 0.00 0.00 0.00 0.00 0.00 0.00 0.01 0.01 0.00 0.01 0.00 0.00
0.00 0.00 0.00 0.00 0.00 0.00 0.00 0.00 0.00 0.00 0.00 0.00 0.00 0.00 0.00 0.00 0.00 0.00 0.00 0.00 0.00 0.00 0.00 0.00 0.00 0.02 0.00 0.00 0.00 0.00 0.00 0.00 0.00 0.00 0.00 0.00 0.01 0.00 0.01 0.01 0.00 0.00 0.00
0.00 0.00 0.00 0.00 0.00 0.00 0.00 0.00 0.00 0.00 0.00 0.00 0.00 0.00 0.00 0.00 0.00 0.00 0.00 0.00 0.00 0.00 0.00 0.00 0.00 0.00 0.00 0.00 0.00 0.00 0.00 0.00 0.00 0.00 0.00 0.00 0.00 0.00 0.00 0.00 0.00 0.00 0.00
0.00 0.00 0.00 0.00 0.00 0.00 0.00 0.00 0.00 0.00 0.00 0.00 0.00 0.00 0.00 0.00 0.00 0.00 0.00 0.00 0.00 0.00 0.00 0.00 0.00 0.00 0.00 0.00 0.00 0.00 0.00 0.00 0.00 0.00 0.00 0.00 0.00 0.00 0.00 0.00 0.00 0.00 0.00
0.00 0.00 0.00 0.00 0.00 0.00 0.00 0.00 0.00 0.00 0.00 0.00 0.00 0.00 0.00 0.00 0.00 0.00 0.00 0.00 0.00 0.00 0.00 0.00 0.00 0.00 0.00 0.00 0.00 0.00 0.00 0.00 0.00 0.00 0.00 0.00 0.00 0.00 0.00 0.00 0.00 0.00 0.00
0.00 0.00 0.00 0.00 0.00 0.00 0.00 0.00 0.00 0.00 0.00 0.00 0.00 0.00 0.00 0.00 0.00 0.00 0.00 0.00 0.00 0.00 0.00 0.00 0.00 0.00 0.00 0.00 0.00 0.00 0.00 0.00 0.00 0.00 0.00 0.00 0.00 0.00 0.00 0.00 0.00 0.00 0.00
0.00 0.00 0.00 0.00 0.00 0.00 0.00 0.00 0.00 0.00 0.00 0.00 0.00 0.00 0.00 0.00 0.00 0.00 0.00 0.00 0.00 0.00 0.00 0.00 0.00 0.00 0.00 0.00 0.00 0.00 0.00 0.00 0.00 0.00 0.00 0.00 0.00 0.00 0.00 0.00 0.00 0.00 0.00
0.00 0.00 0.00 0.00 0.00 0.00 0.00 0.00 0.00 0.00 0.00 0.00 0.00 0.00 0.00 0.00 0.00 0.00 0.00 0.00 0.00 0.00 0.00 0.00 0.00 0.00 0.00 0.00 0.00 0.00 0.00 0.00 0.00 0.00 0.00 0.00 0.00 0.00 0.00 0.00 0.00 0.00 0.00
0.00 0.00 0.00 0.00 0.00 0.00 0.00 0.00 0.00 0.00 0.00 0.00 0.00 0.00 0.00 0.00 0.00 0.00 0.00 0.00 0.00 0.00 0.00 0.00 0.00 0.00 0.00 0.00 0.00 0.00 0.00 0.00 0.00 0.00 0.00 0.00 0.00 0.00 0.00 0.00 0.00 0.01 0.00
0.00 0.00 0.00 0.00 0.00 0.00 0.00 0.00 0.00 0.00 0.00 0.00 0.00 0.00 0.00 0.00 0.00 0.00 0.00 0.00 0.00 0.00 0.00 0.00 0.00 0.00 0.00 0.00 0.00 0.00 0.00 0.00 0.00 0.00 0.00 0.00 0.00 0.00 0.00 0.00 0.00 0.00 0.01
0.00 0.00 0.00 0.00 0.00 0.00 0.00 0.00 0.00 0.00 0.00 0.00 0.00 0.00 0.00 0.00 0.00 0.00 0.00 0.00 0.00 0.00 0.00 0.00 0.00 0.00 0.00 0.00 0.00 0.00 0.00 0.00 0.00 0.00 0.00 0.00 0.00 0.00 0.00 0.00 0.00 0.00 0.01
0.00 0.00 0.00 0.00 0.00 0.00 0.00 0.00 0.00 0.00 0.00 0.00 0.00 0.00 0.00 0.00 0.00 0.00 0.00 0.00 0.00 0.00 0.00 0.00 0.00 0.00 0.00 0.00 0.00 0.00 0.00 0.00 0.00 0.00 0.00 0.00 0.00 0.00 0.01 0.00 0.00 0.00 0.00
0.00 0.00 0.00 0.00 0.00 0.00 0.00 0.00 0.00 0.00 0.00 0.00 0.00 0.00 0.00 0.00 0.00 0.00 0.00 0.00 0.00 0.00 0.00 0.00 0.00 0.00 0.00 0.00 0.00 0.00 0.00 0.00 0.00 0.00 0.00 0.00 0.00 0.00 0.00 0.00 0.00 0.01 0.00
0.00 0.00 0.00 0.00 0.00 0.00 0.00 0.00 0.00 0.00 0.00 0.00 0.00 0.00 0.00 0.00 0.00 0.00 0.00 0.00 0.00 0.00 0.00 0.00 0.00 0.00 0.00 0.00 0.00 0.00 0.00 0.00 0.00 0.00 0.00 0.00 0.00 0.00 0.00 0.00 0.00 0.00 0.00
0.00 0.00 0.00 0.00 0.00 0.00 0.00 0.00 0.00 0.00 0.00 0.00 0.00 0.00 0.00 0.00 0.00 0.00 0.00 0.00 0.00 0.00 0.00 0.00 0.00 0.00 0.00 0.00 0.00 0.00 0.00 0.00 0.00 0.00 0.00 0.00 0.00 0.00 0.00 0.00 0.00 0.00 0.00
0.00 0.00 0.00 0.00 0.00 0.00 0.00 0.00 0.00 0.00 0.00 0.00 0.00 0.00 0.00 0.00 0.00 0.00 0.00 0.00 0.00 0.00 0.00 0.00 0.00 0.00 0.00 0.00 0.00 0.00 0.00 0.00 0.00 0.00 0.00 0.00 0.00 0.00 0.00 0.00 0.00 0.00 0.00
0.00 0.00 0.00 0.00 0.00 0.00 0.00 0.00 0.00 0.00 0.00 0.00 0.00 0.00 0.00 0.00 0.00 0.00 0.00 0.00 0.00 0.00 0.00 0.00 0.00 0.00 0.00 0.00 0.00 0.00 0.00 0.00 0.00 0.00 0.00 0.00 0.00 0.00 0.00 0.00 0.00 0.00 0.00
0.00 0.00 0.00 0.00 0.00 0.00 0.00 0.00 0.00 0.00 0.00 0.00 0.00 0.00 0.00 0.00 0.00 0.00 0.00 0.00 0.00 0.00 0.00 0.00 0.00 0.00 0.00 0.00 0.00 0.00 0.00 0.00 0.00 0.00 0.00 0.00 0.00 0.00 0.00 0.00 0.00 0.00 0.00
MSLP
1026.92 1026.99 1026.89 1026.26 1025.80 1025.32 1024.83 1024.36 1023.87 1023.29 1022.69 1021.98 1021.44 1020.89 1020.36 1019.90 1019.57 1019.17 1018.76 1018.40 1018.36 1018.26 1018.11 1018.04 1017.89 1017.96 1017.94 1018.04 1018.08 1018.14 1018.11 1018.11 1018.02 1017.95 1017.83 1017.90 1017.78 1017.75 1017.73 1017.69 1017.44 1017.59 1017.95
1027.45 1027.28 1027.16 1026.64 1026.24 1025.87 1025.31 1024.75 1024.27 1023.75 1023.17 1022.64 1022.03 1021.53 1021.02 1020.47 1019.99 1019.57 1019.16 1018.86 1018.71 1018.54 1018.34 1018.27 1018.39 1018.50 1018.43 1018.43 1018.55 1018.57 1018.54 1018.59 1018.53 1018.43 1018.31 1018.35 1018.37 1018.25 1018.18 1018.19 1018.12 1018.32 1018.42
1027.69 1027.52 1027.05 1027.00 1026.54 1026.09 1025.71 1025.26 1024.72 1024.10 1023.60 1023.08 1022.63 1022.06 1021.58 1021.09 1020.60 1020.05 1019.70 1019.43 1019.10 1018.86 1018.65 1018.74 1018.93 1018.93 1018.93 1018.94 1018.97 1019.01 1018.98 1018.99 1018.98 1018.82 1018.46 1018.07 1018.52 1018.69 1018.62 1018.73 1018.68 1018.64 1018.77
1028.14 1027.89 1027.55 1027.48 1027.06 1026.60 1026.12 1025.62 1025.12 1024.63 1024.19 1023.65 1023.27 1022.85 1022.31 1021.69 1021.22 1020.71 1020.22 1019.87 1019.57 1019.26 1019.09 1019.07 1019.31 1019.37 1019.45 1019.33 1019.26 1019.34 1019.41 1019.41 1019.29 1018.99 1018.45 1018.41 1018.65 1019.26 1019.13 1019.13 1019.16 1019.09 1019.12
1028.34 1028.31 1028.04 1027.82 1027.43 1027.02 1026.55 1025.97 1025.49 1025.06 1024.66 1024.23 1023.75 1023.37 1022.88 1022.26 1021.71 1021.20 1020.75 1020.43 1020.17 1019.80 1019.46 1019.38 1019.63 1019.69 1019.77 1019.78 1019.69 1019.70 1019.70 1019.79 1019.60 1018.98 1019.01 1019.03 1018.96 1019.62 1019.63 1019.52 1019.52 1019.52 1019.55
1028.54 1028.71 1028.52 1028.24 1027.81 1027.37 1026.97 1026.46 1025.92 1025.52 1025.17 1024.75 1024.23 1023.91 1023.47 1022.81 1022.30 1021.80 1021.37 1021.08 1020.65 1020.33 1019.90 1019.72 1019.88 1019.94 1019.92 1020.00 1020.02 1020.15 1020.10 1020.03 1019.61 1019.25 1019.30 1019.62 1019.69 1020.11 1020.07 1019.98 1019.96 1019.93 1019.91
1028.81 1029.08 1029.00 1028.80 1028.41 1027.88 1027.37 1026.88 1026.42 1025.96 1025.62 1025.30 1024.86 1024.43 1023.95 1023.41 1022.92 1022.45 1022.03 1021.68 1021.29 1020.88 1020.48 1020.17 1020.09 1020.17 1020.09 1020.20 1020.23 1020.43 1020.51 1020.33 1019.55 1019.55 1019.58 1019.76 1020.32 1020.45 1020.34 1020.37 1020.38 1020.35 1020.38
1029.18 1029.28 1029.20 1029.16 1028.98 1028.58 1028.01 1027.56 1027.07 1026.56 1026.21 1025.79 1025.33 1025.01 1024.58 1024.15 1023.57 1023.13 1022.70 1022.27 1021.84 1021.50 1021.06 1020.73 1020.37 1020.32 1020.29 1020.40 1020.57 1020.73 1020.80 1020.59 1019.95 1020.00 1019.92 1020.01 1020.69 1020.71 1020.75 1020.74 1020.72 1020.78 1020.78
1029.53 1029.47 1029.34 1029.22 1029.15 1028.88 1028.68 1028.25 1027.81 1027.34 1026.87 1026.27 1025.80 1025.39 1025.02 1024.66 1024.23 1023.78 1023.34 1022.82 1022.38 1022.09 1021.65 1021.19 1020.84 1020.49 1020.53 1020.58 1020.70 1020.93 1021.06 1020.83 1020.04 1020.32 1020.25 1020.51 1020.83 1020.86 1020.96 1021.12 1021.12 1021.09 1021.22
1029.68 1029.70 1029.54 1029.39 1029.22 1028.89 1028.62 1028.49 1028.22 1027.90 1027.51 1027.03 1026.50 1025.82 1025.42 1024.87 1024.63 1024.40 1024.01 1023.49 1023.00 1022.62 1022.19 1021.69 1021.32 1020.97 1020.65 1020.81 1020.88 1021.05 1021.23 1021.01 1020.33 1020.57 1020.53 1020.73 1021.05 1021.12 1021.32 1021.51 1021.53 1021.52 1021.59
1029.91 1029.98 1029.85 1029.76 1029.43 1029.21 1028.73 1028.58 1028.30 1028.07 1027.71 1027.31 1026.75 1026.28 1025.40 1025.10 1024.85 1024.53 1024.59 1024.13 1023.57 1023.08 1022.70 1022.27 1021.78 1021.54 1021.08 1021.00 1021.09 1021.28 1021.26 1020.45 1020.54 1020.59 1020.60 1021.44 1021.39 1021.42 1021.68 1021.64 1021.89 1021.96 1021.92
1030.02 1030.27 1030.18 1030.01 1029.85 1029.55 1029.12 1028.94 1028.61 1028.27 1027.93 1027.52 1027.14 1026.60 1026.20 1025.75 1025.40 1024.99 1024.73 1024.44 1023.93 1023.59 1023.15 1022.83 1022.36 1022.05 1021.77 1021.43 1020.71 1021.42 1020.82 1020.65 1020.71 1020.76 1020.83 1021.68 1021.71 1021.67 1021.94 1022.07 1022.23 1022.35 1022.37
1030.14 1030.38 1030.60 1030.35 1030.16 1029.90 1029.64 1029.38 1028.99 1028.75 1028.34 1028.03 1027.60 1027.12 1026.45 1026.01 1025.61 1025.23 1024.86 1024.49 1024.26 1024.07 1023.34 1023.33 1022.92 1022.66 1022.29 1022.08 1021.50 1020.54 1020.61 1020.82 1020.71 1020.93 1021.19 1021.73 1021.78 1021.92 1022.23 1022.38 1022.52 1022.63 1022.82
1030.05 1030.57 1030.76 1030.70 1030.46 1030.19 1029.92 1029.62 1029.44 1029.18 1028.92 1028.54 1028.26 1027.86 1026.99 1026.54 1026.13 1025.81 1025.39 1025.09 1024.75 1024.71 1024.07 1023.70 1023.59 1023.29 1022.81 1022.36 1021.94 1021.57 1020.73 1020.80 1020.77 1020.99 1021.35 1021.79 1021.86 1022.03 1022.39 1022.65 1022.84 1023.01 1023.08
1029.83 1030.54 1030.87 1030.86 1030.71 1030.52 1030.27 1030.01 1029.84 1029.49 1029.39 1029.17 1028.88 1028.49 1027.84 1027.24 1026.78 1026.38 1026.02 1025.90 1025.54 1025.21 1024.89 1024.10 1023.74 1023.64 1023.06 1022.66 1022.24 1021.92 1021.64 1020.94 1020.95 1021.09 1021.24 1022.07 1022.00 1022.09 1022.36 1022.67 1022.98 1023.23 1023.43
1029.65 1030.17 1030.71 1030.89 1030.88 1030.73 1030.54 1030.50 1030.20 1030.13 1029.86 1029.45 1029.20 1028.97 1028.51 1028.07 1027.47 1027.09 1026.76 1026.37 1026.02 1025.73 1025.71 1024.77 1024.03 1023.39 1023.20 1022.84 1022.60 1022.16 1021.93 1021.51 1021.20 1021.29 1021.44 1021.77 1022.31 1022.27 1022.43 1022.70 1022.94 1023.24 1023.52
1029.33 1029.88 1030.30 1030.82 1030.92 1030.82 1030.83 1030.57 1030.42 1030.49 1030.16 1029.98 1029.90 1029.55 1029.03 1028.69 1028.06 1027.69 1027.20 1026.84 1026.69 1026.34 1025.73 1024.97 1024.27 1023.46 1022.92 1022.45 1022.28 1022.49 1021.98 1022.09 1021.72 1021.49 1021.68 1021.83 1022.08 1022.57 1022.67 1022.73 1023.18 1023.28 1023.42
1029.29 1029.75 1030.25 1030.59 1030.89 1030.91 1030.81 1030.74 1030.70 1030.65 1030.45 1030.37 1030.18 1029.95 1029.73 1029.19 1028.66 1028.17 1027.60 1027.50 1027.16 1026.57 1025.96 1025.47 1024.74 1024.09 1023.48 1022.95 1022.52 1022.19 1022.31 1022.14 1022.36 1022.32 1022.00 1021.89 1022.11 1022.27 1022.79 1022.91 1023.04 1023.34 1023.56
1029.00 1029.57 1030.09 1030.48 1030.65 1030.93 1031.05 1030.94 1031.01 1030.96 1030.84 1030.65 1030.51 1030.25 1029.97 1029.57 1029.27 1028.54 1028.45 1027.97 1027.45 1026.68 1026.44 1026.16 1025.29 1024.84 1024.48 1023.71 1023.28 1022.65 1022.44 1022.49 1022.50 1022.46 1022.53 1022.44 1022.43 1022.65 1022.61 1023.04 1023.34 1023.35 1023.59
1029.10 1029.54 1029.95 1030.35 1030.61 1030.85 1030.97 1030.91 1030.92 1030.83 1030.95 1030.94 1030.74 1030.62 1030.45 1030.22 1029.87 1029.31 1029.14 1028.75 1027.88 1027.36 1027.07 1026.66 1026.14 1025.28 1024.79 1024.53 1023.84 1023.08 1023.08 1023.10 1022.96 1022.81 1022.61 1022.93 1023.34 1022.90 1023.02 1023.06 1023.02 1023.08 1023.56
1029.09 1029.53 1029.85 1030.15 1030.48 1030.57 1030.52 1030.36 1030.51 1030.69 1030.81 1030.87 1031.03 1031.10 1030.90 1030.63 1030.30 1029.88 1029.42 1028.93 1028.62 1028.24 1027.82 1027.16 1026.81 1026.43 1025.47 1025.36 1024.39 1023.69 1023.43 1023.54 1023.45 1023.31 1022.99 1023.26 1023.41 1023.49 1023.63 1023.46 1023.54 1023.22 1023.27
1028.46 1029.15 1029.65 1029.94 1030.24 1030.39 1030.39 1030.60 1030.62 1030.78 1031.20 1031.30 1031.43 1031.41 1031.29 1030.89 1030.74 1030.33 1029.89 1029.66 1029.24 1028.51 1028.43 1028.13 1027.59 1027.18 1026.73 1026.82 1026.11 1025.18 1024.00 1023.61 1023.68 1023.83 1023.83 1023.57 1023.47 1023.90 1023.74 1023.83 1024.21 1024.02 1023.69
1027.85 1028.51 1029.15 1029.62 1030.02 1030.31 1030.62 1030.93 1031.15 1031.24 1031.27 1030.95 1031.15 1031.27 1031.56 1031.35 1031.26 1030.95 1030.49 1030.07 1029.75 1029.42 1029.09 1028.81 1028.74 1028.46 1027.75 1027.29 1027.14 1027.10 1026.08 1025.07 1024.50 1024.17 1024.58 1024.76 1024.18 1023.90 1023.89 1023.70 1024.13 1024.33 1024.17
1027.22 1028.14 1028.77 1029.36 1029.81 1030.25 1030.62 1030.61 1030.62 1030.37 1030.57 1031.13 1031.29 1031.50 1031.61 1031.67 1031.49 1031.28 1030.93 1030.51 1030.26 1030.09 1029.86 1029.62 1029.22 1028.86 1028.59 1028.32 1027.77 1027.88 1027.72 1027.60 1026.14 1024.58 1024.79 1025.08 1025.14 1024.83 1023.79 1023.64 1024.19 1024.17 1024.19
1026.83 1027.75 1028.46 1029.04 1029.53 1029.98 1030.34 1030.40 1030.54 1030.57 1030.93 1031.32 1031.50 1031.49 1031.64 1031.71 1031.70 1031.49 1031.28 1031.13 1030.82 1030.64 1030.49 1030.22 1029.83 1029.50 1029.32 1029.24 1029.08 1028.83 1028.37 1027.76 1027.53 1026.72 1025.98 1025.53 1025.07 1025.07 1024.47 1024.14 1024.59 1024.59 1024.11
1026.70 1027.64 1028.27 1028.82 1029.23 1029.69 1030.03 1030.28 1030.42 1030.56 1030.88 1031.13 1031.41 1031.44 1031.54 1031.68 1031.87 1031.95 1031.72 1031.59 1031.45 1031.34 1031.17 1030.87 1030.64 1030.29 1029.99 1029.81 1029.72 1029.61 1029.18 1028.78 1028.51 1028.16 1027.47 1026.78 1026.26 1025.51 1024.93 1024.36 1024.54 1024.80 1024.75
Thickness
5657 5656 5658 5663 5666 5671 5675 5678 5683 5688 5693 5699 5701 5705 5709 5712 5713 5716 5719 5723 5724 5725 5726 5726 5728 5728 5729 5728 5728 5729 5728 5729 5730 5730 5730 5730 5729 5729 5728 5728 5730 5729 5726
5652 5654 5655 5659 5663 5666 5671 5676 5680 5684 5689 5693 5699 5701 5705 5709 5713 5715 5720 5720 5722 5724 5727 5727 5725 5723 5726 5726 5726 5726 5726 5727 5729 5729 5728 5729 5728 5729 5729 5727 5728 5727 5726
5649 5651 5655 5656 5660 5664 5668 5672 5676 5681 5686 5690 5694 5699 5701 5705 5710 5715 5716 5718 5720 5723 5725 5724 5723 5723 5723 5724 5724 5724 5724 5725 5726 5727 5729 5731 5728 5728 5729 5727 5726 5727 5726
5646 5648 5651 5653 5656 5660 5664 5669 5673 5676 5680 5684 5688 5691 5695 5701 5705 5710 5714 5715 5717 5719 5721 5723 5722 5721 5720 5721 5722 5722 5722 5722 5724 5727 5730 5730 5728 5724 5726 5726 5725 5726 5725
5646 5647 5648 5651 5654 5658 5661 5666 5670 5673 5676 5680 5683 5686 5690 5696 5701 5706 5710 5712 5713 5716 5719 5721 5720 5720 5719 5719 5720 5720 5721 5720 5722 5726 5727 5727 5727 5722 5723 5724 5724 5724 5724
5646 5645 5647 5649 5652 5656 5660 5664 5667 5670 5673 5677 5680 5683 5686 5691 5696 5700 5704 5707 5710 5713 5716 5718 5718 5718 5719 5718 5718 5717 5718 5718 5722 5723 5724 5723 5723 5720 5720 5722 5721 5722 5721
5645 5644 5645 5646 5648 5652 5656 5661 5664 5667 5669 5672 5676 5679 5683 5686 5689 5694 5697 5701 5705 5708 5712 5714 5716 5716 5718 5717 5716 5715 5715 5716 5720 5721 5721 5721 5718 5718 5718 5719 5720 5719 5719
5643 5642 5644 5644 5646 5649 5652 5655 5659 5663 5664 5667 5671 5674 5678 5681 5683 5687 5691 5695 5699 5702 5706 5709 5712 5713 5715 5714 5712 5712 5713 5713 5716 5716 5718 5718 5714 5715 5715 5715 5716 5716 5716
5641 5641 5642 5644 5645 5647 5648 5651 5654 5657 5660 5664 5667 5671 5674 5676 5678 5681 5684 5689 5693 5696 5699 5703 5706 5709 5710 5711 5711 5709 5710 5712 5715 5712 5713 5713 5712 5712 5713 5713 5713 5713 5712
5639 5639 5641 5642 5643 5645 5647 5650 5651 5653 5655 5658 5663 5667 5670 5673 5674 5675 5678 5682 5686 5690 5693 5697 5701 5703 5705 5706 5708 5707 5707 5709 5712 5711 5710 5709 5708 5708 5708 5708 5710 5710 5710
5637 5637 5638 5638 5641 5642 5646 5647 5649 5650 5652 5655 5659 5662 5667 5670 5671 5672 5673 5676 5680 5684 5687 5690 5695 5697 5699 5700 5702 5702 5704 5709 5709 5709 5709 5703 5704 5704 5704 5704 5704 5705 5706
5637 5635 5635 5636 5637 5639 5641 5643 5645 5647 5648 5651 5653 5656 5659 5662 5665 5668 5669 5671 5674 5677 5681 5683 5688 5691 5693 5694 5698 5697 5701 5704 5704 5705 5705 5700 5699 5700 5699 5698 5698 5698 5699
5633 5633 5632 5633 5635 5636 5637 5638 5640 5641 5643 5645 5648 5650 5654 5657 5660 5662 5665 5668 5668 5670 5675 5677 5680 5683 5685 5687 5690 5695 5697 5697 5699 5699 5699 5696 5696 5695 5694 5694 5692 5692 5692
5632 5629 5628 5629 5630 5632 5632 5633 5633 5634 5636 5639 5641 5643 5648 5651 5654 5655 5657 5659 5662 5662 5665 5669 5670 5673 5677 5680 5683 5685 5690 5692 5693 5693 5692 5691 5691 5690 5688 5687 5686 5685 5684
5629 5625 5624 5624 5625 5627 5628 5629 5629 5630 5629 5631 5633 5635 5640 5643 5646 5648 5651 5650 5653 5654 5656 5661 5664 5665 5670 5673 5676 5679 5679 5684 5686 5686 5686 5684 5685 5685 5683 5682 5680 5679 5677
5626 5623 5621 5621 5621 5623 5623 5623 5624 5624 5625 5627 5628 5629 5632 5633 5637 5639 5642 5644 5646 5648 5647 5652 5656 5662 5664 5667 5668 5671 5673 5674 5677 5678 5678 5677 5677 5678 5677 5676 5675 5674 5672
5625 5621 5619 5617 5617 5618 5617 5619 5620 5618 5620 5621 5620 5622 5625 5626 5630 5632 5635 5636 5636 5638 5642 5646 5651 5656 5658 5661 5664 5661 5666 5665 5667 5668 5669 5669 5669 5668 5668 5668 5666 5666 5667
5621 5618 5615 5613 5612 5612 5612 5613 5613 5613 5614 5614 5615 5616 5616 5620 5623 5625 5628 5628 5630 5633 5636 5639 5643 5646 5650 5654 5655 5659 5656 5656 5655 5657 5658 5660 5660 5660 5659 5659 5660 5658 5657
5620 5616 5612 5610 5609 5607 5606 5606 5605 5605 5605 5607 5607 5609 5612 5614 5615 5619 5618 5621 5624 5629 5629 5630 5633 5634 5636 5642 5645 5649 5650 5649 5646 5646 5646 5648 5648 5649 5650 5649 5648 5650 5649
5613 5611 5609 5606 5604 5602 5601 5601 5600 5600 5598 5598 5599 5601 5602 5603 5605 5608 5608 5611 5617 5619 5621 5622 5623 5627 5629 5630 5635 5641 5639 5637 5637 5637 5639 5638 5636 5639 5639 5640 5641 5641 5641
5608 5605 5604 5602 5600 5598 5598 5599 5598 5596 5594 5593 5591 5590 5591 5593 5595 5598 5601 5604 5606 5607 5611 5615 5616 5615 5620 5617 5624 5628 5630 5628 5628 5627 5627 5625 5627 5628 5627 5630 5632 5633 5633
5607 5602 5599 5597 5595 5594 5593 5591 5590 5588 5584 5583 5581 5581 5582 5585 5586 5588 5591 5592 5595 5600 5599 5600 5603 5604 5604 5601 5606 5610 5622 5621 5618 5616 5613 5613 5616 5617 5622 5621 5619 5622 5625
5604 5601 5596 5593 5590 5587 5585 5582 5579 5577 5576 5577 5575 5573 5572 5574 5574 5577 5580 5583 5585 5586 5588 5588 5587 5588 5592 5593 5590 5590 5600 5608 5606 5604 5599 5595 5600 5606 5611 5614 5610 5609 5610
5603 5596 5591 5587 5583 5580 5577 5575 5575 5578 5576 5568 5566 5564 5563 5563 5565 5568 5570 5573 5574 5574 5575 5575 5576 5577 5578 5578 5580 5576 5575 5573 5583 5599 5589 5582 5582 5589 5600 5603 5600 5600 5598
5597 5590 5585 5580 5576 5573 5570 5568 5567 5566 5562 5558 5556 5556 5555 5554 5556 5558 5559 5560 5562 5562 5562 5563 5564 5564 5563 5562 5562 5561 5562 5565 5563 5569 5574 5574 5572 5575 5586 5588 5583 5583 5589
5589 5582 5577 5573 5570 5566 5563 5560 5559 5557 5554 5551 5549 5549 5548 5546 5545 5545 5547 5548 5548 5548 5548 5549 5549 5550 5551 5551 5550 5548 5549 5549 5547 5547 5551 5551 5552 5566 5573 5576 5570 5568 5571